Regional Weather Roundup
Issued by NWS Cleveland, OH

Home | Current Version | Previous Version | Graphics & Text | Print | Product List | Glossary On
Versions: 1 2 3 4 5 6 7 8 9 10 11 12 13 14 15 16 17 18 19 20 21 22 23 24 25 26 27 28 29 30 31 32 33 34 35 36 37 38 39 40 41 42 43 44 45 46 47 48 49 50
000
ASUS41 KCLE 171310
RWRCLE
OHIO REGIONAL WEATHER ROUNDUP
NATIONAL WEATHER SERVICE CLEVELAND, OH
800 AM EST SUN DEC 17 2017

NOTE: "FAIR" INDICATES FEW OR NO CLOUDS BELOW 12,000 FEET WITH NO
SIGNIFICANT WEATHER AND/OR OBSTRUCTIONS TO VISIBILITY.

OHZ001>008-015>018-024>027-034-035-043-044-171400-
   NORTHWEST OHIO

CITY           SKY/WX    TMP DP  RH WIND       PRES   REMARKS
DEFIANCE       FOG       30  28  92 E6        30.15S VSB 3/4 WCI  24
FINDLAY        CLOUDY    28  23  81 E5        30.14R WCI  23
TOLEDO EXPRESS CLOUDY    29  28  96 E6        30.16S FOG     WCI  23
TOLEDO EXEC    CLOUDY    30  26  85 NE6       30.17F WCI  24
LIMA           CLOUDY    33  28  81 S8        30.13R WCI  26
$$

OHZ009>014-019>023-028>033-038-089-171400-
   NORTHEAST OHIO

CITY           SKY/WX    TMP DP  RH WIND       PRES   REMARKS
CLE-HOPKINS    CLOUDY    27  24  89 E3        30.19F FOG
CLE-LAKEFRONT  CLOUDY    29  25  85 E3        30.17F FOG
CUY CO. ARPT   MOCLDY    27  27 100 E7        30.19S FOG     WCI  19
LORAIN-ELYRIA  CLOUDY    22  17  81 E3        30.17S HAZE
ASHTABULA      PTCLDY    24  22  91 E6        30.21S WCI  17
AKRON-CANTON   CLOUDY    30  24  78 S7        30.15F WCI  23
WOOSTER        CLOUDY    25  22  88 CALM      30.16S
MANSFIELD      CLOUDY    32  28  85 S9        30.14S WCI  24
YOUNGSTOWN     CLOUDY    21  19  92 E5        30.17S FOG     WCI  15
$$

OHZ042-051>053-060>062-070>072-077>081-171400-
  SOUTHWEST OHIO

CITY           SKY/WX    TMP DP  RH WIND       PRES   REMARKS
CINC-COVINGTON CLOUDY    38  31  76 S9        30.18R
CINC-LUNKEN    CLOUDY    32  30  92 CALM      30.21R
HAMILTON       CLOUDY    35  30  82 CALM      30.19R
DAYTON         CLOUDY    37  30  75 S8        30.16R
WRIGHT-PAT AFB CLOUDY    35  31  84 SE5       30.17R
DAYTON GENERAL CLOUDY    36  29  75 S8        30.16R
WILMINGTON     CLOUDY    35  30  82 S7        30.18R WCI  29
$$

OHZ036-037-039>041-045>050-054>059-063>069-073>076-082>088-171400-
  CENTRAL AND SOUTHEAST OHIO

CITY           SKY/WX    TMP DP  RH WIND       PRES   REMARKS
COLUMBUS       CLOUDY    34  28  79 CALM      30.17S
OSU AIRPORT    CLOUDY    33  29  85 S5        30.17S WCI  29
BOLTON FIELD   CLEAR     32  28  86 S5        30.18R WCI  27
RICKENBACK AFB CLOUDY    35  29  78 S6        30.18R
NEWARK         CLOUDY    27  25  92 CALM      30.17S
MARION         CLOUDY    32  27  81 S9        30.16R WCI  24
LANCASTER      PTCLDY    33  28  81 SE3       30.18S
ZANESVILLE     CLOUDY    30  25  81 CALM      30.18F
NEW PHILLY     NOT AVBL
$$




USA.gov is the U.S. government's official web portal to all federal, state and local government web resources and services.